This is the latest recevied weather packets stored in our database for station/object W4JCW. If no packets are shown the sender has not sent any weather packets the latest 10 day(s).
| Time | Temp. | Humidity | Pressure | Rain* | Wind** | Luminosity | Snow |
|---|---|---|---|---|---|---|---|
| 1777984012 | 15° C | 82% | 1016.2 hPa | 0 mm | - | 173 W/m² | - |
| 1777983709 | 14.44° C | 84% | 1016 hPa | 0 mm | - | 170 W/m² | - |
| 1777983406 | 14.44° C | 85% | 1016 hPa | 0 mm | - | 91 W/m² | - |
| 1777983103 | 13.89° C | 86% | 1015.7 hPa | 0 mm | - | 63 W/m² | - |
| 1777982799 | 13.89° C | 87% | 1015.8 hPa | 0 mm | - | 41 W/m² | - |
| 1777982496 | 13.33° C | 89% | 1015.7 hPa | 0 mm | - | 76 W/m² | - |
| 1777982189 | 13.33° C | 90% | 1015.7 hPa | 0 mm | - | 37 W/m² | - |
| 1777981887 | 12.78° C | 90% | 1015.8 hPa | 0 mm | - | 39 W/m² | - |
| 1777981584 | 12.78° C | 91% | 1015.7 hPa | 0 mm | - | 44 W/m² | - |
| 1777981280 | 12.22° C | 92% | 1015.6 hPa | 0 mm | - | 33 W/m² | - |
| 1777980977 | 12.22° C | 92% | 1015.7 hPa | 0 mm | - | 31 W/m² | - |
| 1777980674 | 11.67° C | 93% | 1015.8 hPa | 0 mm | - | 29 W/m² | - |
| 1777980370 | 11.67° C | 94% | 1015.6 hPa | 0 mm | - | 28 W/m² | - |
| 1777980069 | 11.67° C | 94% | 1015.8 hPa | 0 mm | - | 26 W/m² | - |
| 1777979768 | 11.67° C | 94% | 1015.5 hPa | 0 mm | - | 24 W/m² | - |
| 1777979463 | 11.11° C | 94% | 1015.6 hPa | 0 mm | - | 22 W/m² | - |
| 1777979160 | 11.11° C | 94% | 1015.7 hPa | 0 mm | - | 20 W/m² | - |
| 1777978857 | 11.11° C | 94% | 1015.5 hPa | 0 mm | - | 17 W/m² | - |
| 1777978554 | 11.11° C | 94% | 1015.4 hPa | 0 mm | - | 15 W/m² | - |
| 1777978250 | 11.11° C | 94% | 1015.4 hPa | 0 mm | - | 12 W/m² | - |
| 1777977947 | 11.11° C | 94% | 1015.2 hPa | 0 mm | - | 10 W/m² | - |
| 1777977644 | 11.11° C | 94% | 1015.4 hPa | 0 mm | - | 7 W/m² | - |
| 1777977341 | 10.56° C | 94% | 1015.1 hPa | 0 mm | - | 5 W/m² | - |
| 1777977038 | 10.56° C | 94% | 1015.3 hPa | 0 mm | - | 3 W/m² | - |
| 1777976735 | 10.56° C | 94% | 1015.2 hPa | 0 mm | - | 1 W/m² | - |
* Rain latest hour (hover to see other rain measurements)
** Current wind speed in m/s (hover to see current wind gust speed)